Погода Нижний Тагил

Хотите узнать прогноз погоды Нижний Тагил? Тогда Вам сюда: Погода Нижний Тагил

Поиск расширенной информации на нашем сайте:

Полезная информация:

Новости сайта



02.01.2020
Опубликован Долгосрочный прогноз погоды по городам России и ближнего зарубежья на январь 2020 года.
Карты: Прогноз на январь и февраль 2020 года, Сравнение прогнозируемой аномалии приземной температуры воздуха на январь 2020 года по разным моделям.




Погода Нижний Тагил - сегодня

Время (UTC), дата Ветер
(°,м/с) 
Видим.   Явления Облачность Т
(°С)
Тd
(°С)
f(%) Тe
(°С)
Pmin
(гПа)
dP
(гПа)
Po
(мм)
O2
(г/м3)
Тmin Tmax R s Состояние
почвы
15 02.07.20 140 (ЮВ) 20000 м    9/3 600 м средняя 
[Cu hum|As op]
+15.9 +11.3 74 +20  1014.8  0.1  738  279    +19       
18 02.07.20 110 (В) 20000 м    8/0 средняя 
[As op]
+9.1 +7.9 92 +10  1015.4  -0.2  738  286           
21 02.07.20 100 (В) 20000 м    8/0 
+7.4 +6.6 95 +8  1014.8  -0.8  737  288           
00 03.07.20 130 (ЮВ) 20000 м  слаб. ливневой дождь  10/10 600 м 
[Cu hum]
+9 +8.1 94 +10  1015  0.4  738  286           
03 03.07.20 230 (ЮЗ) 20000 м    10/10 600 м 
[Sc]
+12.7 +10.8 88 +17  1014.5  738  282  +7.3    0.2    влажная 
06 03.07.20 180 (Ю) 20000 м    10/8 600 м средняя 
[Sc|As trans]
+17.3 +12.2 72 +23  1014  738  277           
09 03.07.20 220 (ЮЗ) 20000 м    9/9 600 м 
[Cu Sc]
+18.5 +12.9 70 +26  1014.1  0.2  738  276           
12 03.07.20 030 (СВ) 20000 м  слаб. ливневой дождь  9/9 600 м кучево-дожд. 
[Cb cap]
+18.5 +16 85 +30  1013.8  -0.2  738  275           
15 03.07.20 290 (З) 20000 м  {ливн. осадки}  9/6 600 м средняя 
[Sc diur, vesp|Ac trans]
+19.4 +14.7 74 +30  1014.1  0.3  738  275    +19.9  14     
18 03.07.20 тихо ()   0500 м  туман{ливн. осадки}  3/3 300 м 
[St]
+12.3 +11.6 95 +16  1015.6  0.7  739  282           
21 03.07.20 тихо ()   0500 м  туман  3/3 600 м 
[Sc]
+10.2 +9.7 97 +11  1016.2  0.3  739  285           
00 04.07.20 090 (В) 0500 м  туман  ясно 
+9.9 +9.4 97 +12  1017  0.7  739  286           
03 04.07.20 310 (СЗ) 20000 м  {туман}  ясно 
+16.1 +12.9 81 +23  1016.7  0.5  740  279  +9.4        влажная 
06 04.07.20 330 (СЗ) 20000 м    3/3 600 м 
[Cu hum]
+20.4 +12.7 61 +26  1016.4  0.1  740  275           
09 04.07.20 340 (С) 20000 м    6/5 600 м верхняя 
[Cu hum|Ci fib]
+23 +12.1 50 +27  1015.3  -0.8  739  272           
12 04.07.20 270 (З) 20000 м    8/4 600 м средняя, верхняя 
[Cu hum|Ac cast|Ci fib]
+23.9 +12.6 49 +29  1014.3  -0.9  738  271           
15 04.07.20 180 (Ю) 20000 м    8/3 600 м средняя, верхняя 
[Sc diur, vesp|Ac trans|Ci fib]
+22.1 +14 60 +30  1013.6  -0.8  738  272    +24.6       
18 04.07.20 100 (В) 20000 м    10/0 средняя 
[As trans]
+14.6 +13.1 91 +22  1013.8  -0.6  737  279           
21 04.07.20 100 (В) 20000 м    10/0 средняя, верхняя 
[Ac trans|Ci fib]
+13 +11.9 93 +18  1013.1  -0.8  737  281           
00 05.07.20 110 (В) 20000 м    10/0 средняя 
[Ac trans]
+12.4 +11.4 94 +17  1012.5  -0.7  736  282           
03 05.07.20 250 (З) 20000 м    10/0 средняя 
[As op]
+16.7 +14.3 86 +26  1012  -0.1  736  277  +11.9        влажная 
06 05.07.20 210 (ЮЗ) 20000 м    10/0 средняя 
[As op]
+20.7 +15.5 72 +31  1010.4  -1  735  272           
09 05.07.20 140 (ЮВ) 20000 м    8/3 600 м средняя 
[Cu hum|As op]
+19.8 +16.4 81 +33  1010.5  735  273           
12 05.07.20 220 (ЮЗ) 20000 м    9/6 600 м средняя 
[Sc diur, vesp|Ac trans]
+23 +16.5 67 +35  1009.2  -1  735  269           
15 05.07.20 220 (ЮЗ) 20000 м    6/3 600 м средняя, верхняя 
[Cu hum|Ac trans|Ci fib]
+21.6 +16.5 73 +34  1008.8  -0.5  734  271    +23.2       
Время (UTC), дата Ветер
(°,м/с) 
Видим.   Явления Облачность Т
(°С)
Тd
(°С)
f(%) Тe
(°С)
Pmin
(гПа)
dP
(гПа)
Po
(мм)
O2
(г/м3)
Тmin Tmax R s Состояние
почвы

Для получения пояснительной информации подведите курсор к названию столбца.

ПОГОДА Нижний Тагил - архив

Всё, что Вы хотите узнать о погоде Нижний Тагил - удобно и подробно!

Выберите нужную дату (начиная с 1 января 2019* года) и нажмите кнопку "Найти".
Будут отображены архивные сводки погоды по пункту Нижний Тагил, начиная с указанной даты.


Отображать данные в формате CSV (для использования в таблицах Excel)


Внимание! Наш архив погоды предназначен исключительно для личного некоммерческого использования в познавательных целях. Если Вам необходимы официальные справки о состоянии погоды (для производственных, юридических, коммерческих и т.п. целей), обращайтесь в органы Росгидромета.

*Примечание: данная дата относится к архиву по метеостанциям СССР (Россия, СНГ, Балтия).
Архив по метеостанциям Зарубежной Европы и Азии (кроме Китая) хранится 10 дней, по другим регионам земного шара (Китай, Африка, Америка, Австралия, Океания) - 1 день.

Нижний Тагил - район местоположения метеостанции


Название, широта, долгота, высота метеостанции:
Нижний Тагил 57.9°ш. 60.1°д. 260 м над ур. моря [Российская Федерация]

Дополнительная информация

В oтличие oт бoльшинства пoгoдных сайтoв мы публикуем пoдрoбную метеoинфoрмацию в детальнoм прoфессиoнальнoм фoрмате.

Характеристики температуры и влажнoсти вoздуха измеряются на высoте 2 м в тени вдали oт зданий и деревьев.
Скoрoсть ветра измеряется на высoте 10 м (на урoвне рoста челoвека скoрoсть ветра ниже в 1.5-2 раза). Если метеoстанция нахoдится в гoрoде или в лесу, тo скoрoсть ветра занижена на 2-4 м/с пo сравнению с oткрытым местoм. Скoрoсть ветра над акватoриями крупных рек и oзёр, а также на вершинах хoлмoв на 2-5 м/с выше, чем в oбычных услoвиях.
Атмoсфернoе давление в разных тoчках местнoсти мoжет значительнo oтличаться oт давления на метеoстанции, в зависимoсти oт услoвий рельефа (при пoдъёме на 10 м давление пoнижается примернo на 1 мм рт.ст.).